SCOUT X-4 DEB, 732

Orbit data source: Space-Track

SCOUT X-4 DEB, 732 is space debris in LEO originally from a launch on Thu, 19 Dec 1963 UTC launched from the Air Force Western Test Range (AFWTR). Debris objects in space refer to the collection of defunct objects orbiting the Earth. Examples of debris include non-operational satellites, rocket bodies, and fragments generated from explosions, collisions, or faulty payload assembly.

Loading next visibility...
Identifier
732, 1963-053H
Orbit
LEO
Country
Flag of USUS
Related business
Manufacturer
Unknown
Mission
Spacecraft
Bus & Motor
Unknown
Mass
Unknown
Launch date (UTC)
1963-12-19 (62 years ago)
Launch vehicle
Unknown
Launch site
Air Force Western Test Range (AFWTR)
Object type
Payload
Rocket body
Debris
Shape & HBR
Unknown shape, 0.1 m
Radar Cross Section
Small (<0.1 m²)

Expand to show TLE details & history
Last TLE update: 13 hours ago

TLE from 13 hours ago
0 SCOUT X-4 DEB
1 00732U 63053H   25309.01572777  .00007390  00000-0  21732-2 0  9990
2 00732  78.5505 147.4539 0424197 272.0962  83.1687 14.02197591943673
Epoch: 2025-11-05T00:22Z
TLE epoch observation values (Epoch: 2025-11-05T00:22:38.879Z)
Latitude
-0.00002°
Longitude
97.29744°
Altitude
865.303 km
Speed
7.432 km/s
True Right ascension
09h 49m 48s
True Declination
0° 00' 00"
Sunlit
Object was in daylight at epoch
Visualization orbit readout
Latitude
Unknown
Longitude
Unknown
Altitude
Unknown
Speed
Unknown
Apparent Right ascension
Unknown
Apparent Declination
Unknown
Sunlit
N/A
Visualization observer readout
Local Sidereal Time
09:50:29
Azimuth
Unknown
Elevation
Unknown
Doppler factor
Unknown
Orbital elements
Apogee altitude
1,191.557 km
Perigee altitude
575.483 km
Semi-major axis
7,261.657 km
Eccentricity
0.04242
Inclination
78.5505°
RAAN
147.4539°
Arg. of periapsis
272.0962°
True anomaly
88.01995°
Mean anomaly
83.1687°
Eccentric anomaly
85.59198°
Mean motion
3.50743 °/min
Orbital period
102.64 mins
BSTAR
0.0021732
Loading maneuver chart data...
Computing Atmospheric mass density...
Loading historical data...
Loading historical data...
Loading historical data...
Loading historical data...
Loading historical data...
Loading historical data...
Loading historical data...

Documentation

Showing up to 5 results
|